Regional Weather Roundup
Issued by NWS Bismarck, ND

Home | Current Version | Previous Version | Text Only | Print | Product List | Glossary On
Versions: 1 2 3 4 5 6 7 8 9 10 11 12 13 14 15 16 17 18 19 20 21 22 23 24 25 26 27 28 29 30 31 32 33 34 35 36 37 38 39 40 41 42 43 44 45 46 47 48 49 50
684
ASUS43 KBIS 300710
RWRBIS

NWR BROADCAST TEXT
NATIONAL WEATHER SERVICE BISMARCK ND
200 AM CDT THU MAR 30 2017

NOTE: "FAIR" INDICATES FEW OR NO CLOUDS BELOW 12,000 FEET WITH NO
SIGNIFICANT WEATHER AND/OR OBSTRUCTIONS TO VISIBILITY.


CITY           SKY/WX    TMP DP  RH WIND       PRES   REMARKS
WILLISTON      FAIR      44  35  70 CALM      29.79F
MINOT          FAIR      50  39  66 SW9       29.80F
MINOT AFB      NOT AVBL
BISMARCK       CLOUDY    47  35  63 SE16      29.92S
DICKINSON      FAIR      38  35  89 S10       29.81F
GARRISON         N/A     44  36  73 S14       29.83F
HETTINGER ARPT MOCLDY    41  36  82 S12       29.87F
JAMESTOWN      CLOUDY    39  35  86 S16       29.96F
HAZEN          FAIR      46  37  71 S23G30    29.86F
LINTON           N/A     39  39 100 S12       29.97S
MANDAN         CLOUDY    45  36  70 S14G21    29.91S
STANLEY        PTSUNNY   39  39 100 CALM      29.82F
TIOGA          CLOUDY    39  39 100 E3        29.81F
WATFORD CITY   FAIR      39  36  87 CALM      29.79F
$$

CITY           SKY/WX    TMP DP  RH WIND       PRES   REMARKS
GRAND FORKS    FAIR      42  37  82 S17       29.98S
GRAND FORKS AF CLOUDY    43  36  77 S18G26    29.97R
DEVILS LAKE    CLOUDY    43  35  73 S22G29    29.92R
FARGO          FAIR      40  37  89 S13       30.02F
CAVALIER       FAIR      45  36  70 S17G25    29.93R
GRAFTON        FAIR      43  37  81 S17G24    29.97S
GWINNER        SUNNY     34  34 100 MISG      30.03F
LANGDON        CLOUDY    41  39  93 S18       29.92R
ROLLA          CLOUDY    41  39  93 S13       29.86S
$$

CITY           SKY/WX    TMP DP  RH WIND       PRES   REMARKS
ABERDEEN       CLOUDY    37  33  85 SE5       30.01F
MOBRIDGE       FAIR      37  31  78 S6        29.94S
BUFFALO          N/A     43  38  82 S15       29.77F
RAPID CITY     FAIR      35  34  96 SE7       29.89F
GLASGOW        FAIR      45  33  63 E12       29.74F
SIDNEY         CLOUDY    42  33  70 N3        29.79F
WOLF POINT     CLOUDY    46  36  68 NE7       29.78S
GLENDIVE       CLOUDY    46  32  58 S5        29.79F
MILES CITY     CLOUDY    50  32  50 S9        29.77F
BAKER          CLOUDY    44  34  67 S12       29.81F
$$

CITY           SKY/WX    TMP DP  RH WIND       PRES   REMARKS
BILLINGS       MOCLDY    51  37  58 NW13      29.79F
GREAT FALLS    FAIR      48  34  58 SW18      29.73F
REGINA         CLOUDY    43  32  65 E5        29.75S
ESTEVAN        CLOUDY    41  34  75 SW7       29.78F
$$





USA.gov is the U.S. government's official web portal to all federal, state and local government web resources and services.